Location: Martley
(52.2333°N, 2.3667°W)
Time: 23:04:00
(UTC+00:00)

Meteor 2-11 Rocket - Pass Details

Date: 11 December 2019
Orbit: 939 x 957 km, 82.5° (Epoch: 26 January)

Event Time Altitude Azimuth Distance (km) Brightness Sun altitude
Exits shadow 04:52:23 54° 192° (SSW) 1,145 4.7 -28.6°
Maximum altitude 04:53:56 88° 277° (W) 958 4.3 -28.3°
Drops below altitude 10° 05:00:07 10° 11° (N) 2,693 6.9 -27.4°
Sets 05:02:38 0° 12° (NNE) 3,645 7.6 -27.0°
